SCP
0 -0 -0 -0 -0 -0 -0 -0 -0 -0 -0 -0 -0 -0 -0 -0 0 -0 0 0 0 0 0 0 0 0 0 0 0 0 0 0 0 0 0 0 0 0 0 0 0 0 0 0 0
-0 -0 -0 -0 -0 -0 -0 -0 -0 -0 -0 -0 -0 -0 -0 -0 -0 0 0 -0 -0 -0 0 0 0 0 0 0 0 0 0 0 0 0 0 0 0 0 0 0 0 0 0 0 0
-0 -0 -0 -0 -0 -0 -0 -0 0 0 -0 -0 -0 -0 0 0 -0 0 -0 -0 -0 -0 -0 0 0 0 0 0 0 0 0 0 0 0 0 0 0 0 0 0 0 0 0 0 0
-0 -0 -0 -0 -0 -0 -0 -0 -0 0 -0 0 0 0 0 0 -0 0 -0 -0 -0 0 -0 0 0 0 0 0 0 0 0 0 0 0 0 0 0 0 0 0 0 0 0 0 0
-0 -0 -0 -0 -0 -0 -0 0 0 -0 -0 0 0 0 0 0 0 -0 -0 -0 0 0 0 0 0 0 0 0 0 0 0 0 0 0 0 0 0 0 0 0 0 0 0 0 0
-0 -0 -0 -0 -0 -0 -0 0 0 0 -0 0 0 0 0 -0 0 -0 -0 0 0 0 0 0 0 0 0 0 0 0 0 -0 0 0 0 0 0 0 0 0 0 0 0 0 0
-0 -0 -0 -0 -0 -0 -0 -0 0 0 0 0 0 0 0 0 0 0 0 0 0 0 0 0 -0 0 0 0 0 -0 0 0 0 0 -0 0 0 0 0 0 0 0 0 0 0
-0 -0 -0 -0 -0 -0 0 -0 0 0 -0 0 0 0 -0 0 0 -0 -0 -0 0 0 0 0 -0 0 -0 0 0 0 0 0 0 0 0 0 0 0 0 0 0 0 0 0 0
-0 -0 -0 -0 -0 -0 0 0 0 0 0 -0 0 0 -0 0 0 0 0 -0 -0 -0 -0 -0 -0 0 -0 0 -0 0 0 0 0 0 0 0 0 0 0 0 0 0 0 0 0
-0 -0 -0 -0 -0 -0 0 0 0 0 -0 0 0 0 0 0 0 0 0 0 -0 0 0 -0 -0 -0 -0 -0 0 0 -0 0 0 0 0 0 0 0 0 0 0 0 0 0 0
-0 -0 -0 -0 -0 -0 -0 -0 -0 0 0 -0 -0 0 0 0 0 0 0 0 0 0 0 -0 -0 -0 -0 0 -0 -0 -0 0 0 0 -0 -0 -0 0 0 0 0 0 0 0 0
-0 -0 -0 -0 -0 0 -0 -0 -0 -0 0 -0 0 0 0 0 0 -0 0 -0 -0 -0 -0 0 -0 -0 0 -0 -0 -0 0 0 0 0 -0 0 0 0 0 0 0 0 0 0 0
-0 -0 -0 -0 0 0 0 0 -0 -0 0 0 0 0 0 0 0 0 -0 -0 -0 -0 -0 -0 -0 -0 -0 -0 -0 0 -0 0 0 0 0 0 0 0 0 0 0 0 -0 -0 -0
0 -0 -0 0 -0 0 0 0 -0 -0 0 0 0 0 0 -0 0 -0 -0 -0 -0 -0 -0 0 -0 -0 -0 -0 0 0 0 -0 -0 0 0 0 0 0 0 0 0 0 -0 -0 -0
0 -0 0 -0 0 0 0 -0 0 0 0 0 0 0 0 0 0 0 0 -0 0 -0 -0 -0 -0 0 0 0 0 -0 0 -0 0 0 0 0 0 0 0 0 0 0 0 -0 -0
0 0 -0 -0 -0 -0 -0 -0 0 0 0 0 0 0 0 0 0 0 -0 0 -0 -0 -0 -0 -0 -0 0 -0 0 -0 0 0 0 0 0 0 0 0 0 0 0 0 -0 -0 -0
0 0 0 -0 0 -0 0 0 0 0 0 0 0 0 0 0 0 0 0 0 0 0 0 -0 -0 -0 -0 -0 -0 0 0 0 0 0 0 0 0 0 0 0 0 0 0 -0 -0
0 0 0 0 0 0 0 0 0 0 0 0 0 0 0 0 0 0 0 0 0 -0 0 0 0 -0 -0 -0 -0 -0 -0 -0 -0 0 0 0 0 0 0 0 0 0 0 0 -0
0 0 0 0 0 0 0 0 0 0 0 0 0 0 0 0 0 0 0 0 0 0 0 0 0 -0 -0 -0 -0 -0 0 0 0 0 0 0 0 0 0 0 0 0 0 0 -0
0 0 0 0 0 0 0 0 0 0 0 0 0 0 0 0 0 0 0 0 0 0 0 0 0 0 -0 0 0 0 -0 -0 0 0 -0 0 0 0 0 0 0 0 0 0 0
0 0 0 0 0 0 0 0 0 0 0 0 0 0 0 0 0 0 0 0 0 0 0 0 0 0 0 0 0 0 0 0 0 0 0 0 0 0 0 0 0 0 0 0 0
0 0 0 0 0 0 0 0 0 0 0 0 0 0 0 0 0 0 0 0 0 0 0 0 0 0 0 0 0 0 0 0 0 0 0 0 0 0 0 0 0 0 0 0 0
0 0 0 0 0 0 0 0 0 0 0 0 0 0 0 0 0 0 0 0 0 0 0 0 0 0 0 0 0 0 0 0 0 0 0 0 0 0 0 0 0 0 0 0 0
0 0 0 0 0 0 0 0 0 0 0 0 0 0 0 0 0 0 0 0 0 0 0 0 0 0 0 0 0 0 0 0 0 0 0 0 0 0 0 0 0 0 0 0 0
0 0 0 0 0 0 0 0 0 0 0 0 0 0 0 0 0 0 0 0 0 0 0 0 0 0 0 0 0 0 0 0 0 0 0 0 0 0 0 0 0 0 0 0 0
0 0 0 0 0 0 0 0 0 0 0 0 0 0 0 0 0 0 0 0 0 0 0 0 0 0 0 0 0 0 0 0 0 0 0 0 0 0 0 0 0 0 0 0 0
0 0 0 0 0 0 0 0 0 0 0 0 0 0 0 0 0 0 0 0 0 0 0 0 0 0 0 0 0 0 0 0 0 0 0 0 0 0 0 0 0 0 0 0 0
Wind_Speed_500mb
36 38 41 41 39 36 38 41 38 30 26 26 25 20 23 26 42 30 46 41 31 28 25 22 26 18 20 16 15 18 6 9 4 5 6 28 27 43 61 70 78 50 60 42 36
35 36 37 39 40 40 41 40 41 36 25 22 14 5 7 12 26 55 41 27 19 21 22 24 24 24 15 12 9 8 5 9 15 7 5 18 60 38 43 63 50 73 62 54 39
32 32 33 36 38 42 41 40 38 35 32 23 15 12 7 1 17 53 43 30 20 21 15 20 19 17 15 12 9 4 8 22 21 19 20 19 45 59 45 34 50 51 64 63 59
28 28 29 29 35 40 37 34 33 34 23 14 12 17 29 7 10 52 36 30 20 24 10 18 15 10 11 11 10 16 22 12 12 23 10 23 21 44 59 39 47 54 59 65 70
26 26 24 25 27 27 31 29 24 28 45 32 16 9 21 53 37 40 27 27 21 26 20 14 25 14 9 10 21 19 14 31 28 23 25 29 29 35 38 35 41 50 64 76 72
26 25 23 23 26 25 21 22 21 29 37 37 51 34 27 50 46 34 26 31 41 40 33 29 14 17 17 10 14 28 28 25 17 33 40 52 38 22 35 30 52 53 67 67 75
26 25 22 21 23 17 20 27 22 17 13 21 51 54 86 45 52 31 30 39 37 31 34 26 26 9 7 9 24 47 30 34 37 18 19 11 43 30 31 44 57 58 57 68 71
24 24 20 18 21 22 14 25 39 37 20 18 12 52 41 53 46 31 27 31 28 36 25 21 11 29 16 13 16 11 11 9 14 37 21 22 16 28 32 53 52 52 54 61 71
19 22 18 17 23 35 43 14 9 3 32 22 24 10 20 40 54 47 29 26 21 19 33 46 38 28 26 9 10 15 6 11 6 50 2 14 14 21 32 45 46 46 51 57 66
17 18 16 10 16 12 27 55 39 9 3 18 50 14 47 43 61 47 26 26 28 25 27 45 31 16 17 16 5 4 8 8 10 16 37 35 24 21 31 42 39 40 44 53 62
18 13 18 9 6 10 8 4 3 27 75 64 45 21 41 24 55 48 39 34 45 45 14 46 28 16 13 7 9 12 9 6 6 8 15 22 19 15 25 35 34 39 45 51 56
19 11 15 17 10 9 12 7 18 26 40 41 47 60 36 48 33 58 46 26 49 23 5 13 29 14 9 14 18 15 7 10 6 10 19 18 18 12 20 25 32 33 42 49 55
20 16 7 23 19 21 20 36 27 22 16 25 36 45 51 23 37 56 43 14 20 28 34 22 8 14 12 20 15 7 11 8 5 11 15 20 8 8 11 23 28 35 38 42 47
20 23 10 11 16 24 24 23 15 8 10 28 31 31 52 7 18 46 41 13 15 6 8 17 20 12 13 12 7 3 8 4 5 5 7 5 4 8 8 6 17 24 33 40 41
23 19 23 21 15 12 17 16 8 3 11 18 16 20 35 25 12 49 27 52 21 14 12 2 11 14 13 7 10 9 17 5 4 5 7 10 7 3 8 4 6 18 28 36 37
19 21 12 23 21 15 15 12 3 14 4 10 16 20 14 28 18 24 30 17 14 15 19 8 6 9 7 11 8 24 6 12 8 5 6 9 7 7 9 9 5 10 20 30 33
10 17 14 21 19 13 9 5 12 13 8 11 7 10 7 14 15 24 13 25 11 10 14 11 8 9 13 10 15 19 13 7 10 9 8 3 7 11 9 8 14 8 16 30 39
4 10 13 19 19 12 6 10 17 7 9 3 2 2 10 12 10 14 6 11 13 11 7 9 10 16 24 6 5 10 7 8 7 3 9 14 8 7 13 17 12 9 18 26 30
4 5 9 13 12 10 4 12 15 13 8 10 4 7 8 7 5 9 10 4 9 11 10 7 2 8 9 8 5 11 11 7 12 2 7 6 10 2 7 6 4 9 16 26 32
8 8 6 6 8 6 13 9 6 4 8 4 5 5 2 6 7 8 2 3 2 11 2 4 5 5 9 7 14 12 1 6 7 5 9 8 9 9 13 12 7 5 14 27 42
7 7 4 2 1 7 8 10 7 9 7 3 7 6 4 5 6 2 3 3 4 4 12 6 6 6 3 9 3 8 5 10 8 6 8 4 12 12 13 11 11 5 26 53 62
6 2 2 5 4 11 5 12 12 11 8 4 5 5 8 5 3 5 4 3 7 5 6 2 8 3 3 12 9 2 6 7 8 11 4 5 13 7 1 7 3 34 67 74 64
7 6 6 8 7 1 2 5 6 10 9 9 5 4 3 8 4 3 4 4 10 4 8 6 3 6 12 10 8 2 5 7 9 6 11 9 11 5 22 25 57 57 66 72 75
6 3 3 6 12 20 12 5 5 6 9 10 8 8 7 4 6 9 5 8 13 8 12 7 3 12 12 9 6 4 5 6 11 6 7 18 18 39 36 38 54 64 73 73 73
7 4 8 3 2 16 9 9 10 10 8 14 3 10 12 7 4 4 5 6 10 13 10 10 7 3 8 12 8 18 26 25 24 19 12 29 29 38 32 42 55 67 70 64 54
10 11 12 9 21 15 2 13 20 9 17 8 9 15 12 13 15 17 13 7 8 12 11 8 5 5 10 7 9 25 37 33 32 32 31 45 47 68 70 60 48 60 56 51 47
18 17 13 14 11 9 10 14 19 27 22 10 28 14 12 17 17 7 20 12 14 17 12 11 9 5 11 8 11 16 19 26 11 13 13 15 23 30 19 35 45 48 50 55 47
Wind_Direction_500mb
38 39 35 45 53 56 60 63 59 67 91 119 118 68 54 40 34 53 39 6 350 7 11 12 38 57 68 83 93 108 90 136 78 345 313 36 34 45 48 58 54 54 52 40 42
41 42 45 55 61 64 69 65 60 63 82 119 125 56 11 26 25 47 33 27 17 17 36 38 43 46 64 75 65 68 99 116 87 50 333 67 42 39 50 38 31 40 47 53 57
44 45 51 61 67 71 72 67 61 65 69 84 99 12 341 349 31 8 22 26 24 17 35 49 39 46 61 61 53 79 108 122 66 63 39 79 54 50 48 48 42 38 34 37 45
48 48 55 68 77 77 74 67 64 57 56 69 65 40 34 127 58 0 22 23 24 10 17 46 45 46 55 61 58 93 115 92 103 67 74 80 75 58 61 64 58 49 40 36 37
50 48 58 76 84 76 75 68 70 67 52 65 44 53 69 62 16 4 36 37 35 40 52 59 56 65 65 99 79 89 133 123 117 120 91 105 92 93 56 56 49 40 39 42 41
51 49 61 76 84 83 73 57 68 80 81 61 56 85 76 58 19 16 50 61 61 54 53 58 50 76 73 78 66 96 103 139 103 87 93 74 65 58 46 49 50 40 43 47 43
52 54 67 82 86 77 89 76 93 87 13 52 54 60 66 38 34 39 72 65 45 55 49 53 66 131 96 83 90 116 88 63 20 25 135 80 43 51 44 59 60 58 50 48 45
59 57 69 83 85 56 104 92 86 67 62 53 55 56 68 45 50 77 79 74 71 54 63 20 108 76 52 72 35 36 52 71 28 17 31 93 66 38 46 62 55 52 48 46 43
65 54 66 82 110 67 66 87 207 81 69 43 49 62 33 42 48 49 58 60 69 63 75 65 88 52 36 53 35 13 66 44 37 11 115 92 102 48 53 64 59 50 47 43 40
57 58 54 90 146 115 81 78 68 100 81 355 40 70 24 4 25 42 66 45 64 90 72 38 45 56 27 36 90 12 56 32 42 1 79 89 97 64 59 65 60 52 46 42 39
47 66 36 57 111 179 185 202 42 50 58 68 53 76 22 41 40 43 50 51 70 68 60 43 60 33 334 346 95 101 82 55 358 52 75 97 96 79 65 65 59 51 45 41 36
49 71 44 56 88 142 185 182 108 118 77 46 40 41 45 35 34 35 53 61 49 52 30 44 48 331 359 32 66 52 66 3 296 345 101 108 91 78 68 67 60 52 44 37 31
55 48 90 55 78 107 135 131 119 111 79 29 25 23 12 28 37 10 27 48 61 53 56 74 314 347 40 35 26 46 80 331 240 7 68 119 116 104 71 72 61 53 48 40 34
58 52 72 78 81 111 126 130 116 116 79 346 0 18 5 50 44 21 37 26 43 111 78 67 2 26 32 58 358 312 102 270 270 82 169 152 240 200 147 83 55 48 41 37 33
57 53 60 71 89 125 145 146 115 104 51 320 353 359 24 63 344 17 32 68 59 24 84 66 5 12 34 344 331 267 322 213 178 94 74 343 71 262 176 59 33 42 40 36 32
55 51 60 70 72 95 135 148 98 43 264 354 353 3 20 23 18 4 35 79 57 61 51 75 26 42 309 299 318 304 23 46 52 66 33 262 119 224 203 176 140 56 44 30 27
57 49 50 64 63 78 131 140 37 97 337 306 333 8 58 359 12 15 25 41 41 41 16 346 20 345 6 359 348 15 43 1 3 11 212 26 35 243 164 179 130 84 27 19 12
73 49 44 56 51 52 105 54 70 246 231 185 324 31 70 6 15 15 41 28 26 37 63 35 354 12 347 61 299 356 90 132 201 317 288 335 261 290 185 123 103 42 21 11 359
207 357 19 48 42 41 90 52 190 199 151 153 56 70 353 18 81 56 54 59 17 19 111 44 319 332 12 4 47 317 41 145 103 80 29 277 289 311 189 140 47 4 6 359 349
224 248 351 10 26 44 72 176 167 159 114 90 154 141 176 324 53 44 41 285 90 41 103 196 28 2 310 355 27 80 91 37 14 54 304 293 275 245 223 222 246 313 340 339 337
189 224 309 289 51 48 120 206 157 149 146 144 168 125 137 154 108 149 213 228 138 43 77 107 94 290 22 30 317 353 33 57 110 126 173 289 270 217 214 211 224 270 323 318 318
202 215 230 191 43 53 112 169 137 158 145 123 122 120 151 150 119 128 196 200 143 124 103 140 140 228 207 294 275 140 171 110 112 270 223 158 270 293 51 267 248 308 312 317 315
202 190 203 193 125 8 90 81 143 142 169 151 128 133 139 149 74 193 156 156 155 102 164 190 329 5 349 354 353 119 198 120 103 71 215 141 262 260 293 295 314 312 309 317 319
200 54 105 114 109 132 140 195 128 144 150 146 128 126 90 121 64 200 191 184 186 154 140 113 133 173 199 197 134 259 227 155 130 139 204 227 272 279 294 293 299 302 308 311 315
188 146 149 217 353 124 113 127 139 170 173 166 133 193 155 119 85 236 275 161 181 194 159 136 193 203 259 250 213 246 255 240 212 224 205 272 261 271 274 281 288 294 301 305 308
186 156 132 87 135 114 319 213 166 179 152 220 212 178 163 158 179 193 149 201 193 174 155 165 260 85 302 329 267 261 258 246 242 246 247 252 268 266 270 280 281 297 308 311 301
192 173 159 149 139 105 208 181 194 162 199 181 196 133 177 220 170 119 167 167 175 163 176 154 131 78 270 344 340 299 244 223 179 200 190 209 242 275 269 279 286 299 308 310 301
Wind_Speed_850mb
36 38 41 41 39 36 38 41 38 30 26 26 25 20 23 26 42 30 46 41 31 28 25 22 26 18 20 16 15 18 6 9 4 5 6 28 27 43 61 70 78 50 60 42 36
35 36 37 39 40 40 41 40 41 36 25 22 14 5 7 12 26 55 41 27 19 21 22 24 24 24 15 12 9 8 5 9 15 7 5 18 60 38 43 63 50 73 62 54 39
32 32 33 36 38 42 41 40 38 35 32 23 15 12 7 1 17 53 43 30 20 21 15 20 19 17 15 12 9 4 8 22 21 19 20 19 45 59 45 34 50 51 64 63 59
28 28 29 29 35 40 37 34 33 34 23 14 12 17 29 7 10 52 36 30 20 24 10 18 15 10 11 11 10 16 22 12 12 23 10 23 21 44 59 39 47 54 59 65 70
26 26 24 25 27 27 31 29 24 28 45 32 16 9 21 53 37 40 27 27 21 26 20 14 25 14 9 10 21 19 14 31 28 23 25 29 29 35 38 35 41 50 64 76 72
26 25 23 23 26 25 21 22 21 29 37 37 51 34 27 50 46 34 26 31 41 40 33 29 14 17 17 10 14 28 28 25 17 33 40 52 38 22 35 30 52 53 67 67 75
26 25 22 21 23 17 20 27 22 17 13 21 51 54 86 45 52 31 30 39 37 31 34 26 26 9 7 9 24 47 30 34 37 18 19 11 43 30 31 44 57 58 57 68 71
24 24 20 18 21 22 14 25 39 37 20 18 12 52 41 53 46 31 27 31 28 36 25 21 11 29 16 13 16 11 11 9 14 37 21 22 16 28 32 53 52 52 54 61 71
19 22 18 17 23 35 43 14 9 3 32 22 24 10 20 40 54 47 29 26 21 19 33 46 38 28 26 9 10 15 6 11 6 50 2 14 14 21 32 45 46 46 51 57 66
17 18 16 10 16 12 27 55 39 9 3 18 50 14 47 43 61 47 26 26 28 25 27 45 31 16 17 16 5 4 8 8 10 16 37 35 24 21 31 42 39 40 44 53 62
18 13 18 9 6 10 8 4 3 27 75 64 45 21 41 24 55 48 39 34 45 45 14 46 28 16 13 7 9 12 9 6 6 8 15 22 19 15 25 35 34 39 45 51 56
19 11 15 17 10 9 12 7 18 26 40 41 47 60 36 48 33 58 46 26 49 23 5 13 29 14 9 14 18 15 7 10 6 10 19 18 18 12 20 25 32 33 42 49 55
20 16 7 23 19 21 20 36 27 22 16 25 36 45 51 23 37 56 43 14 20 28 34 22 8 14 12 20 15 7 11 8 5 11 15 20 8 8 11 23 28 35 38 42 47
20 23 10 11 16 24 24 23 15 8 10 28 31 31 52 7 18 46 41 13 15 6 8 17 20 12 13 12 7 3 8 4 5 5 7 5 4 8 8 6 17 24 33 40 41
23 19 23 21 15 12 17 16 8 3 11 18 16 20 35 25 12 49 27 52 21 14 12 2 11 14 13 7 10 9 17 5 4 5 7 10 7 3 8 4 6 18 28 36 37
19 21 12 23 21 15 15 12 3 14 4 10 16 20 14 28 18 24 30 17 14 15 19 8 6 9 7 11 8 24 6 12 8 5 6 9 7 7 9 9 5 10 20 30 33
10 17 14 21 19 13 9 5 12 13 8 11 7 10 7 14 15 24 13 25 11 10 14 11 8 9 13 10 15 19 13 7 10 9 8 3 7 11 9 8 14 8 16 30 39
4 10 13 19 19 12 6 10 17 7 9 3 2 2 10 12 10 14 6 11 13 11 7 9 10 16 24 6 5 10 7 8 7 3 9 14 8 7 13 17 12 9 18 26 30
4 5 9 13 12 10 4 12 15 13 8 10 4 7 8 7 5 9 10 4 9 11 10 7 2 8 9 8 5 11 11 7 12 2 7 6 10 2 7 6 4 9 16 26 32
8 8 6 6 8 6 13 9 6 4 8 4 5 5 2 6 7 8 2 3 2 11 2 4 5 5 9 7 14 12 1 6 7 5 9 8 9 9 13 12 7 5 14 27 42
7 7 4 2 1 7 8 10 7 9 7 3 7 6 4 5 6 2 3 3 4 4 12 6 6 6 3 9 3 8 5 10 8 6 8 4 12 12 13 11 11 5 26 53 62
6 2 2 5 4 11 5 12 12 11 8 4 5 5 8 5 3 5 4 3 7 5 6 2 8 3 3 12 9 2 6 7 8 11 4 5 13 7 1 7 3 34 67 74 64
7 6 6 8 7 1 2 5 6 10 9 9 5 4 3 8 4 3 4 4 10 4 8 6 3 6 12 10 8 2 5 7 9 6 11 9 11 5 22 25 57 57 66 72 75
6 3 3 6 12 20 12 5 5 6 9 10 8 8 7 4 6 9 5 8 13 8 12 7 3 12 12 9 6 4 5 6 11 6 7 18 18 39 36 38 54 64 73 73 73
7 4 8 3 2 16 9 9 10 10 8 14 3 10 12 7 4 4 5 6 10 13 10 10 7 3 8 12 8 18 26 25 24 19 12 29 29 38 32 42 55 67 70 64 54
10 11 12 9 21 15 2 13 20 9 17 8 9 15 12 13 15 17 13 7 8 12 11 8 5 5 10 7 9 25 37 33 32 32 31 45 47 68 70 60 48 60 56 51 47
18 17 13 14 11 9 10 14 19 27 22 10 28 14 12 17 17 7 20 12 14 17 12 11 9 5 11 8 11 16 19 26 11 13 13 15 23 30 19 35 45 48 50 55 47
Wind_Direction_850mb
38 39 35 45 53 56 60 63 59 67 91 119 118 68 54 40 34 53 39 6 350 7 11 12 38 57 68 83 93 108 90 136 78 345 313 36 34 45 48 58 54 54 52 40 42
41 42 45 55 61 64 69 65 60 63 82 119 125 56 11 26 25 47 33 27 17 17 36 38 43 46 64 75 65 68 99 116 87 50 333 67 42 39 50 38 31 40 47 53 57
44 45 51 61 67 71 72 67 61 65 69 84 99 12 341 349 31 8 22 26 24 17 35 49 39 46 61 61 53 79 108 122 66 63 39 79 54 50 48 48 42 38 34 37 45
48 48 55 68 77 77 74 67 64 57 56 69 65 40 34 127 58 0 22 23 24 10 17 46 45 46 55 61 58 93 115 92 103 67 74 80 75 58 61 64 58 49 40 36 37
50 48 58 76 84 76 75 68 70 67 52 65 44 53 69 62 16 4 36 37 35 40 52 59 56 65 65 99 79 89 133 123 117 120 91 105 92 93 56 56 49 40 39 42 41
51 49 61 76 84 83 73 57 68 80 81 61 56 85 76 58 19 16 50 61 61 54 53 58 50 76 73 78 66 96 103 139 103 87 93 74 65 58 46 49 50 40 43 47 43
52 54 67 82 86 77 89 76 93 87 13 52 54 60 66 38 34 39 72 65 45 55 49 53 66 131 96 83 90 116 88 63 20 25 135 80 43 51 44 59 60 58 50 48 45
59 57 69 83 85 56 104 92 86 67 62 53 55 56 68 45 50 77 79 74 71 54 63 20 108 76 52 72 35 36 52 71 28 17 31 93 66 38 46 62 55 52 48 46 43
65 54 66 82 110 67 66 87 207 81 69 43 49 62 33 42 48 49 58 60 69 63 75 65 88 52 36 53 35 13 66 44 37 11 115 92 102 48 53 64 59 50 47 43 40
57 58 54 90 146 115 81 78 68 100 81 355 40 70 24 4 25 42 66 45 64 90 72 38 45 56 27 36 90 12 56 32 42 1 79 89 97 64 59 65 60 52 46 42 39
47 66 36 57 111 179 185 202 42 50 58 68 53 76 22 41 40 43 50 51 70 68 60 43 60 33 334 346 95 101 82 55 358 52 75 97 96 79 65 65 59 51 45 41 36
49 71 44 56 88 142 185 182 108 118 77 46 40 41 45 35 34 35 53 61 49 52 30 44 48 331 359 32 66 52 66 3 296 345 101 108 91 78 68 67 60 52 44 37 31
55 48 90 55 78 107 135 131 119 111 79 29 25 23 12 28 37 10 27 48 61 53 56 74 314 347 40 35 26 46 80 331 240 7 68 119 116 104 71 72 61 53 48 40 34
58 52 72 78 81 111 126 130 116 116 79 346 0 18 5 50 44 21 37 26 43 111 78 67 2 26 32 58 358 312 102 270 270 82 169 152 240 200 147 83 55 48 41 37 33
57 53 60 71 89 125 145 146 115 104 51 320 353 359 24 63 344 17 32 68 59 24 84 66 5 12 34 344 331 267 322 213 178 94 74 343 71 262 176 59 33 42 40 36 32
55 51 60 70 72 95 135 148 98 43 264 354 353 3 20 23 18 4 35 79 57 61 51 75 26 42 309 299 318 304 23 46 52 66 33 262 119 224 203 176 140 56 44 30 27
57 49 50 64 63 78 131 140 37 97 337 306 333 8 58 359 12 15 25 41 41 41 16 346 20 345 6 359 348 15 43 1 3 11 212 26 35 243 164 179 130 84 27 19 12
73 49 44 56 51 52 105 54 70 246 231 185 324 31 70 6 15 15 41 28 26 37 63 35 354 12 347 61 299 356 90 132 201 317 288 335 261 290 185 123 103 42 21 11 359
207 357 19 48 42 41 90 52 190 199 151 153 56 70 353 18 81 56 54 59 17 19 111 44 319 332 12 4 47 317 41 145 103 80 29 277 289 311 189 140 47 4 6 359 349
224 248 351 10 26 44 72 176 167 159 114 90 154 141 176 324 53 44 41 285 90 41 103 196 28 2 310 355 27 80 91 37 14 54 304 293 275 245 223 222 246 313 340 339 337
189 224 309 289 51 48 120 206 157 149 146 144 168 125 137 154 108 149 213 228 138 43 77 107 94 290 22 30 317 353 33 57 110 126 173 289 270 217 214 211 224 270 323 318 318
202 215 230 191 43 53 112 169 137 158 145 123 122 120 151 150 119 128 196 200 143 124 103 140 140 228 207 294 275 140 171 110 112 270 223 158 270 293 51 267 248 308 312 317 315
202 190 203 193 125 8 90 81 143 142 169 151 128 133 139 149 74 193 156 156 155 102 164 190 329 5 349 354 353 119 198 120 103 71 215 141 262 260 293 295 314 312 309 317 319
200 54 105 114 109 132 140 195 128 144 150 146 128 126 90 121 64 200 191 184 186 154 140 113 133 173 199 197 134 259 227 155 130 139 204 227 272 279 294 293 299 302 308 311 315
188 146 149 217 353 124 113 127 139 170 173 166 133 193 155 119 85 236 275 161 181 194 159 136 193 203 259 250 213 246 255 240 212 224 205 272 261 271 274 281 288 294 301 305 308
186 156 132 87 135 114 319 213 166 179 152 220 212 178 163 158 179 193 149 201 193 174 155 165 260 85 302 329 267 261 258 246 242 246 247 252 268 266 270 280 281 297 308 311 301
192 173 159 149 139 105 208 181 194 162 199 181 196 133 177 220 170 119 167 167 175 163 176 154 131 78 270 344 340 299 244 223 179 200 190 209 242 275 269 279 286 299 308 310 301